Weather History for Quillayute, WA

Change the Weather History Date:

Wednesday, December 15, 2010

  Actual Average Record
Temperature  
Mean Temperature 38 °F 40 °F  
Max Temperature 42 °F 46 °F 55 °F (1980)
Min Temperature 33 °F 34 °F 21 °F (1967)
Degree Days  
Heating Degree Days 27 25  
Month to date heating degree days 367  
Since 1 July heating degree days 2081  
Cooling Degree Days 0 0  
Month to date cooling degree days 0  
Year to date cooling degree days 19  
Moisture  
Dew Point 37 °F    
Average Humidity 98    
Maximum Humidity 100    
Minimum Humidity 93    
Precipitation  
Precipitation 0.86 in 0.40 in 4.61 in (1999)
Month to date precipitation 6.54  
Year to date precipitation 93.09  
Sea Level Pressure  
Sea Level Pressure 29.84 in    
Wind  
Wind Speed 4 mph (SE)    
Max Wind Speed 15 mph    
Max Gust Speed 25 mph    
Visibility 8 miles    
Events Rain    
T = Trace of Precipitation, MM = Missing Value Source: NWS Daily Summary

Daily Weather History Graph

Daily Weather History Graph

Search for Another Location

Airport:

Trip Planner

Search our weather history database for the weather conditions in past years. The results will help you decide how hot, cold, wet, or windy it might be!

Date:

Astronomy

Dec. 15, 2010 Rise Set
Actual Time 8:01 AM PST 4:25 PM PST
Civil Twilight 7:24 AM PST 5:01 PM PST
Nautical Twilight 6:45 AM PST 5:41 PM PST
Astronomical Twilight 6:07 AM PST 6:19 PM PST
Moon 12:48 PM PST (12/15) 2:08 AM PST (12/15)
Length of Visible Light 9h 37m
Length of Day
8h 24m
Waxing Gibbous, 71% of the Moon is Illuminated
Dec 15
Waxing Gibbous
Dec 21
Full
Dec 27
Last Quarter
Jan 4
New
Jan 12
First Quarter

Hourly Weather History & Observations

Time (PST) Temp. Windchill Dew Point Humidity Pressure Visibility Wind Dir Wind Speed Gust Speed Precip Events Conditions
12:42 AM 39.2 °F 32.5 °F 37.4 °F 93% 29.76 in 6.0 mi South 10.4 mph - 0.01 in Rain Light Rain
12:53 AM 37.9 °F 33.5 °F 37.0 °F 97% 29.76 in 3.0 mi SE 5.8 mph - 0.14 in Rain Light Rain
1:01 AM 37.4 °F 33.8 °F 37.4 °F 100% 29.76 in 10.0 mi ESE 4.6 mph - 0.00 in Rain Light Rain
1:53 AM 37.0 °F 33.3 °F 37.0 °F 100% 29.77 in 10.0 mi East 4.6 mph - 0.00 in   Mostly Cloudy
2:53 AM 37.0 °F 34.5 °F 37.0 °F 100% 29.78 in 10.0 mi ESE 3.5 mph - N/A   Overcast
3:16 AM 37.4 °F 34.9 °F 37.4 °F 100% 29.79 in 4.0 mi Variable 3.5 mph - 0.05 in Rain Light Rain
3:25 AM 37.4 °F 33.8 °F 37.4 °F 100% 29.79 in 10.0 mi SE 4.6 mph - 0.05 in Rain Light Rain
3:53 AM 36.0 °F - 36.0 °F 100% 29.80 in 6.0 mi Calm Calm - 0.05 in Rain Light Rain
4:10 AM 35.6 °F 30.7 °F 35.6 °F 100% 29.79 in 10.0 mi ENE 5.8 mph - 0.02 in Rain Light Rain
4:31 AM 35.6 °F 31.7 °F 35.6 °F 100% 29.79 in 10.0 mi East 4.6 mph - 0.02 in   Partly Cloudy
4:53 AM 36.0 °F 33.3 °F 36.0 °F 100% 29.80 in 10.0 mi East 3.5 mph - 0.02 in   Scattered Clouds
5:20 AM 37.4 °F - 37.4 °F 100% 29.80 in 8.0 mi Calm Calm - 0.00 in Rain Light Rain
5:53 AM 37.0 °F - 36.0 °F 96% 29.81 in 5.0 mi Calm Calm - 0.02 in Rain Light Rain
6:13 AM 37.4 °F 34.9 °F 37.4 °F 100% 29.80 in 7.0 mi East 3.5 mph - 0.00 in Rain Light Rain
6:53 AM 37.9 °F - 37.0 °F 97% 29.81 in 6.0 mi Calm Calm - 0.04 in Rain Light Rain
7:39 AM 37.4 °F 32.8 °F 37.4 °F 100% 29.82 in 3.0 mi West 5.8 mph - 0.07 in Rain Rain
7:53 AM 37.9 °F 35.5 °F 37.9 °F 100% 29.82 in 5.0 mi SE 3.5 mph - 0.09 in Rain Light Rain
8:25 AM 39.2 °F 34.2 °F 37.4 °F 93% 29.82 in 10.0 mi SE 6.9 mph - 0.00 in   Mostly Cloudy
8:53 AM 39.0 °F 34.0 °F 37.9 °F 96% 29.82 in 10.0 mi East 6.9 mph - 0.00 in   Scattered Clouds
9:53 AM 39.9 °F 34.5 °F 39.0 °F 97% 29.84 in 4.0 mi SE 8.1 mph - 0.03 in Rain Light Rain
10:53 AM 39.9 °F 37.8 °F 39.0 °F 97% 29.85 in 2.5 mi SSE 3.5 mph - 0.02 in Rain Rain
11:02 AM 39.2 °F 33.0 °F 39.2 °F 100% 29.85 in 4.0 mi SSE 9.2 mph - 0.01 in Rain Light Rain
11:22 AM 41.0 °F 35.8 °F 39.2 °F 93% 29.83 in 10.0 mi SE 8.1 mph - 0.01 in   Mostly Cloudy
11:53 AM 41.0 °F 35.8 °F 39.9 °F 96% 29.83 in 10.0 mi ESE 8.1 mph - 0.01 in   Partly Cloudy
12:14 PM 39.2 °F 35.0 °F 37.4 °F 93% 29.83 in 7.0 mi SE 5.8 mph - 0.01 in Rain Light Rain
12:53 PM 39.9 °F 32.9 °F 37.9 °F 93% 29.83 in 2.0 mi SSE 11.5 mph 20.7 mph 0.11 in Rain Heavy Rain
1:16 PM 39.2 °F 33.0 °F 37.4 °F 93% 29.83 in 4.0 mi SSE 9.2 mph 23.0 mph 0.08 in Rain Light Rain
1:53 PM 39.0 °F 34.8 °F 37.0 °F 93% 29.83 in 6.0 mi ESE 5.8 mph - 0.12 in Rain Light Rain
2:16 PM 37.4 °F 30.8 °F 37.4 °F 100% 29.83 in 4.0 mi SSE 9.2 mph 18.4 mph 0.05 in Rain Rain
2:32 PM 37.4 °F 30.8 °F 37.4 °F 100% 29.84 in 5.0 mi SSE 9.2 mph - 0.08 in Rain Light Rain
2:53 PM 37.9 °F 32.7 °F 37.0 °F 97% 29.85 in 6.0 mi SE 6.9 mph - 0.10 in Rain Light Rain
3:45 PM 37.4 °F - 37.4 °F 100% 29.86 in 2.5 mi Calm Calm - 0.07 in Rain Rain
3:53 PM 37.9 °F 33.5 °F 37.0 °F 97% 29.87 in 4.0 mi SE 5.8 mph - 0.09 in Rain Light Rain
4:36 PM 37.4 °F 32.8 °F 37.4 °F 100% 29.86 in 10.0 mi ESE 5.8 mph - 0.00 in   Overcast
4:53 PM 37.0 °F 32.4 °F 36.0 °F 96% 29.87 in 10.0 mi ESE 5.8 mph - 0.00 in   Mostly Cloudy
5:53 PM 37.9 °F 33.5 °F 37.0 °F 97% 29.86 in 10.0 mi ESE 5.8 mph - N/A   Mostly Cloudy
6:15 PM 37.4 °F 34.9 °F 37.4 °F 100% 29.87 in 10.0 mi SSW 3.5 mph - N/A   Overcast
6:37 PM 37.4 °F 32.8 °F 37.4 °F 100% 29.87 in 9.0 mi SE 5.8 mph - 0.01 in Rain Light Rain
6:53 PM 37.9 °F 35.5 °F 37.0 °F 97% 29.88 in 10.0 mi SE 3.5 mph - 0.02 in Rain Light Rain
7:53 PM 37.0 °F - 36.0 °F 96% 29.89 in 10.0 mi Calm Calm - 0.00 in   Partly Cloudy
8:32 PM 35.6 °F 32.8 °F 35.6 °F 100% 29.89 in 10.0 mi East 3.5 mph - N/A   Mostly Cloudy
8:53 PM 36.0 °F 33.3 °F 35.1 °F 97% 29.90 in 10.0 mi East 3.5 mph - N/A   Mostly Cloudy
9:15 PM 35.6 °F - 35.6 °F 100% 29.90 in 10.0 mi Calm Calm - N/A   Scattered Clouds
9:53 PM 33.1 °F - 33.1 °F 100% 29.91 in 10.0 mi Calm Calm - N/A   Clear
10:53 PM 34.0 °F 31.0 °F 34.0 °F 100% 29.94 in 10.0 mi ENE 3.5 mph - N/A   Mostly Cloudy
11:53 PM 34.0 °F 28.8 °F 34.0 °F 100% 29.94 in 10.0 mi ENE 5.8 mph - N/A   Partly Cloudy